Bryce Canyon, UT

5:47 PM MST on December 15, 2017 (GMT -0700)
Bryce Canyon

Weather History for KBCE - January, 2014

Change the Weather History Date:

Wednesday, January 1, 2014

  Actual Average Record
Temperature  
Mean Temperature 24 °F -  
Max Temperature 39 °F 32 °F 56 °F (1981)
Min Temperature 10 °F 5 °F -20 °F (2011)
Degree Days  
Heating Degree Days 40    
Moisture  
Dew Point 14 °F    
Average Humidity 68    
Maximum Humidity 84    
Minimum Humidity 46    
Precipitation  
Precipitation 0.00 in - - ()
Sea Level Pressure  
Sea Level Pressure 30.29 in    
Wind  
Wind Speed 7 mph (WNW)    
Max Wind Speed 14 mph    
Max Gust Speed -    
Visibility 10 miles    
Events      
Averages and records for this station are not official NWS values.
T = Trace of Precipitation, MM = Missing Value Source: NWS Daily Summary

Daily Weather History Graph

Daily Weather History Graph

Search for Another Location

Airport or City:

Trip Planner

Search our weather history database for the weather conditions in past years. The results will help you decide how hot, cold, wet, or windy it might be!

Date:

Astronomy

Jan. 01, 2014 Rise Set
Actual Time 7:43 AM MST 5:20 PM MST
Civil Twilight 7:14 AM MST 5:50 PM MST
Nautical Twilight 6:41 AM MST 6:22 PM MST
Astronomical Twilight 6:10 AM MST 6:54 PM MST
Moon 7:38 AM MST (1/1) 6:08 PM MST (1/1)
Length of Visible Light 10h 35m
Length of Day
9h 36m
New Moon, 0% of the Moon is Illuminated
Jan 1
New Moon
Jan 7
First Quarter
Jan 15
Full
Jan 23
Last Quarter
Jan 30
New

Hourly Weather History & Observations

Time (MST) Temp. Windchill Dew Point Humidity Pressure Visibility Wind Dir Wind Speed Gust Speed Precip Events Conditions
12:53 AM 19.0 °F 10.0 °F 12.9 °F 77% 30.16 in 10.0 mi West 6.9 mph - N/A   Clear
1:53 AM 19.0 °F 13.9 °F 12.9 °F 77% 30.12 in 10.0 mi West 3.5 mph - N/A   Clear
2:53 AM 17.1 °F 5.8 °F 10.9 °F 77% 30.17 in 10.0 mi West 9.2 mph - N/A   Clear
3:53 AM 27.0 °F 18.0 °F 15.1 °F 61% 30.13 in 10.0 mi NW 9.2 mph - N/A   Clear
4:53 AM 24.1 °F 17.0 °F 12.9 °F 62% 30.17 in 10.0 mi NE 5.8 mph - N/A   Clear
5:53 AM 24.1 °F 18.2 °F 14.0 °F 65% 30.15 in 10.0 mi NNW 4.6 mph - N/A   Clear
6:53 AM 19.0 °F - 10.9 °F 71% 30.21 in 10.0 mi Calm Calm - N/A   Clear
7:53 AM 12.0 °F 1.5 °F 8.1 °F 84% 30.32 in 10.0 mi South 6.9 mph - N/A   Clear
8:53 AM 21.0 °F - 15.1 °F 78% 30.36 in 10.0 mi Calm Calm - N/A   Clear
9:53 AM 25.0 °F 18.1 °F 17.1 °F 72% 30.36 in 10.0 mi SSE 5.8 mph - N/A   Clear
10:53 AM 33.1 °F 24.9 °F 21.0 °F 61% 30.32 in 10.0 mi NE 10.4 mph - N/A   Clear
11:53 AM 35.1 °F 27.4 °F 21.9 °F 59% 30.33 in 10.0 mi North 10.4 mph - N/A   Clear
12:53 PM 36.0 °F 27.5 °F 24.1 °F 62% 30.28 in 10.0 mi NW 12.7 mph - N/A   Clear
1:53 PM 37.9 °F 29.6 °F 21.9 °F 53% 30.26 in 10.0 mi West 13.8 mph - N/A   Clear
2:53 PM 39.0 °F 32.8 °F 21.9 °F 50% 30.26 in 10.0 mi WNW 9.2 mph - N/A   Clear
3:53 PM 39.0 °F 36.8 °F 21.0 °F 49% 30.22 in 10.0 mi Variable 3.5 mph - N/A   Clear
4:53 PM 35.1 °F 32.2 °F 16.0 °F 46% 30.26 in 10.0 mi NNE 3.5 mph - N/A   Clear
5:53 PM 24.1 °F 17.0 °F 14.0 °F 65% 30.34 in 10.0 mi North 5.8 mph - N/A   Clear
6:53 PM 18.0 °F 6.9 °F 10.9 °F 74% 30.41 in 10.0 mi West 9.2 mph - N/A   Clear
7:53 PM 15.1 °F 6.4 °F 9.0 °F 77% 30.48 in 10.0 mi West 5.8 mph - N/A   Clear
8:53 PM 17.1 °F 4.3 °F 9.0 °F 71% 30.43 in 10.0 mi West 11.5 mph - N/A   Clear
9:53 PM 12.9 °F 2.6 °F 8.1 °F 81% 30.44 in 10.0 mi West 6.9 mph - N/A   Clear
10:53 PM 10.0 °F -2.9 °F 5.0 °F 80% 30.41 in 10.0 mi West 9.2 mph - N/A   Clear
11:53 PM 12.9 °F -0.2 °F 8.1 °F 81% 30.39 in 10.0 mi West 10.4 mph - N/A   Clear